FW5866 Weather Reports


Display with metric or nautical units.
time (UTC)temp
F
wind
direction
speed
MPH
gust
MPH
rain 1hr
in
rain 24hr
in
rain mn
in
humidity
%
barometer
mb
20260906124559 75 0 0.0 2.0 0.00 1.48 0.00 95 1015.3
20260906123058 74 0 0.0 0.0 0.00 1.48 0.00 95 1015.1
20260906121557 74 0 0.0 0.0 0.00 1.48 0.00 95 1014.9
20260906120110 74 0 0.0 0.0 0.00 1.48 0.00 95 1014.8
20260906114549 74 0 0.0 0.0 0.00 1.48 0.00 95 1014.6
20260906113100 74 0 0.0 0.0 0.00 1.48 0.00 95 1014.3
20260906111607 73 0 0.0 0.0 0.00 1.48 0.00 95 1014.2
20260906110050 74 0 0.0 0.0 0.00 1.48 0.00 94 1014.2
20260906104549 74 0 0.0 0.0 0.00 1.48 0.00 94 1013.9
20260906103058 74 0 0.0 0.0 0.00 1.48 0.00 94 1013.8
20260906101551 74 0 0.0 0.0 0.00 1.48 0.00 94 1013.9
20260906100051 74 0 0.0 0.0 0.00 1.48 0.00 95 1013.8
20260906094557 74 0 0.0 0.0 0.00 1.48 0.00 94 1013.9
20260906093058 74 0 0.0 0.0 0.00 1.48 0.00 94 1013.8
20260906091600 74 0 0.0 0.0 0.00 1.48 0.00 94 1013.9
20260906090057 74 0 0.0 0.0 0.00 1.48 0.00 94 1013.7
20260906084558 74 0 0.0 0.0 0.00 1.48 0.00 94 1013.7
20260906083100 74 0 0.0 0.0 0.00 1.48 0.00 94 1013.8
20260906081559 74 0 0.0 0.0 0.00 1.48 0.00 94 1013.7
20260906080111 74 0 0.0 0.0 0.00 1.48 0.00 94 1013.8
20260906074548 75 0 0.0 0.0 0.00 1.48 0.00 94 1013.8
20260906073054 75 0 0.0 0.0 0.00 1.48 0.00 94 1013.7
20260906071600 75 0 0.0 0.0 0.00 1.48 0.00 94 1013.9
20260906070056 75 0 0.0 1.0 0.00 1.48 0.00 94 1013.9
20260906064549 75 0 0.0 2.0 0.00 1.48 0.00 94 1013.8
20260906063058 75 0 0.0 0.0 0.00 1.48 0.00 94 1013.8
20260906061556 75 0 0.0 0.0 0.00 1.48 0.00 94 1013.9
20260906060055 75 0 0.0 0.0 0.00 1.48 0.00 93 1013.7
20260906054550 75 0 0.0 0.0 0.00 1.48 0.00 93 1013.6
20260906053052 75 0 0.0 0.0 0.00 1.48 0.00 93 1013.6
20260906051603 75 0 0.0 0.0 0.00 1.48 0.00 93 1013.6
20260906050055 75 0 0.0 1.0 0.00 1.48 0.00 93 1013.7
20260906044548 75 0 0.0 0.0 0.00 1.48 1.48 93 1013.6
20260906043056 76 0 0.0 0.0 0.00 1.48 1.48 93 1013.5
20260906041557 76 0 0.0 0.0 0.00 1.48 1.48 93 1013.2
20260906040115 76 0 0.0 1.0 0.00 1.48 1.48 93 1013.0
20260906034559 76 0 0.0 1.0 0.00 1.48 1.48 93 1012.9
20260906033100 76 0 0.0 1.0 0.00 1.48 1.48 92 1013.0
20260906031553 76 0 0.0 2.0 0.00 1.48 1.48 92 1013.1
20260906024618 77 0 0.0 0.0 0.00 1.48 1.48 92 1013.2
20260906023055 77 0 0.0 2.0 0.00 1.48 1.48 92 1013.4
20260906021559 77 0 0.0 0.0 0.00 1.48 1.48 92 1013.3
20260906020058 77 0 0.0 1.0 0.01 1.48 1.48 92 1013.3
20260906014602 77 0 0.0 2.0 0.01 1.48 1.48 92 1013.1
20260906013100 77 262 1.0 3.0 0.01 1.48 1.48 93 1013.1
20260906011559 77 257 0.0 4.0 0.01 1.48 1.48 93 1013.0
20260906010113 77 238 0.0 2.0 0.01 1.47 1.47 92 1013.3
20260906004554 78 0 0.0 0.0 0.03 1.47 1.47 92 1013.4
20260906003108 77 0 0.0 0.0 0.04 1.47 1.47 90 1013.7
20260906001559 78 0 0.0 0.0 0.06 1.47 1.47 90 1013.5
20260906000103 77 0 0.0 0.0 0.05 1.46 1.46 90 1013.7
20260905234558 77 0 0.0 0.0 0.04 1.44 1.44 89 1013.6
20260905233049 77 0 0.0 0.0 0.04 1.43 1.43 89 1013.7
20260905231612 77 0 0.0 0.0 0.02 1.41 1.41 89 1013.6
20260905230058 78 0 0.0 0.0 0.05 1.41 1.41 89 1014.2
20260905224600 78 0 0.0 0.0 0.19 1.40 1.40 88 1014.2
20260905223057 78 0 0.0 2.0 0.55 1.39 1.39 88 1014.2
20260905221554 78 0 0.0 0.0 1.01 1.39 1.39 87 1014.0
20260905220106 79 193 0.0 4.0 1.16 1.36 1.36 87 1014.0
20260905214557 80 284 1.0 6.0 1.01 1.20 1.20 87 1013.9
20260905213058 81 207 1.0 4.0 0.64 0.83 0.83 85 1013.6
20260905211551 85 0 1.0 6.0 0.16 0.35 0.35 82 1014.1
20260905210051 86 0 1.0 6.0 0.00 0.19 0.19 78 1013.5
20260905204602 90 315 1.0 6.0 0.00 0.19 0.19 81 1013.4
20260905203057 89 220 0.0 3.0 0.00 0.19 0.19 83 1013.4
20260905201553 88 0 0.0 5.0 0.00 0.19 0.19 85 1013.7
20260905200104 87 167 1.0 5.0 0.00 0.19 0.19 86 1013.7
20260905194557 86 0 0.0 2.0 0.00 0.19 0.19 86 1014.0
20260905193107 85 0 0.0 3.0 0.00 0.19 0.19 86 1014.3
20260905191558 84 0 0.0 3.0 0.00 0.19 0.19 89 1013.9
20260905190103 83 167 0.0 2.0 0.00 0.19 0.19 89 1013.8
20260905184608 82 0 0.0 4.0 0.00 0.19 0.19 90 1013.9
20260905183059 82 158 0.0 3.0 0.01 0.19 0.19 90 1014.5
20260905181552 81 145 0.0 3.0 0.06 0.19 0.19 90 1014.8
20260905174557 79 0 0.0 3.0 0.19 0.19 0.19 88 1015.0
20260905173054 80 0 1.0 7.0 0.18 0.18 0.18 87 1015.1
20260905171723 80 54 1.0 11.0 0.12 0.12 0.12 86 1015.4
20260905171603 80 54 1.0 11.0 0.12 0.12 0.12 86 1015.4
20260905170107 83 27 1.0 9.0 0.06 0.06 0.06 85 1015.5
20260905164559 87 319 1.0 6.0 0.00 0.00 0.00 81 1015.4
20260905163052 88 0 0.0 3.0 0.00 0.00 0.00 84 1015.2
20260905161550 87 327 1.0 4.0 0.00 0.00 0.00 85 1015.4
20260905160052 86 0 0.0 4.0 0.00 0.00 0.00 87 1015.6
20260905154554 86 0 0.0 4.0 0.00 0.00 0.00 87 1015.6
20260905153053 85 0 0.0 3.0 0.00 0.00 0.00 88 1015.6
20260905151551 84 0 0.0 4.0 0.00 0.00 0.00 89 1015.5
20260905150058 83 0 0.0 4.0 0.00 0.00 0.00 90 1015.5
20260905144554 82 0 0.0 3.0 0.00 0.00 0.00 91 1015.7
20260905143056 82 0 0.0 2.0 0.00 0.00 0.00 91 1015.6
20260905141551 81 0 0.0 2.0 0.00 0.00 0.00 92 1015.6
20260905140058 80 18 0.0 3.0 0.00 0.00 0.00 92 1015.6
20260905134558 80 0 0.0 2.0 0.00 0.00 0.00 92 1015.6
20260905133052 79 0 0.0 2.0 0.00 0.00 0.00 92 1015.4
20260905131554 78 0 0.0 0.0 0.00 0.00 0.00 93 1015.4
20260905130059 78 0 0.0 0.0 0.00 0.00 0.00 92 1015.5